Regional Weather Roundup
Issued by NWS

Home | Current Version | Previous Version | Graphics & Text | Print | Product List | Glossary On
Versions: 1 2 3 4 5 6 7 8 9 10 11 12 13 14 15 16 17 18 19 20 21 22 23 24 25 26 27 28 29 30 31 32 33 34 35 36 37 38 39 40 41 42 43 44 45 46 47 48 49 50
000
ASUS43 KMKX 031211
RWRWI

WISCONSIN REGIONAL WEATHER ROUNDUP
NATIONAL WEATHER SERVICE MILWAUKEE/SULLIVAN WI
700 AM CDT SUN MAY 03 2015

NOTE: "FAIR" INDICATES FEW OR NO CLOUDS BELOW 12,000 FEET WITH NO
SIGNIFICANT WEATHER AND/OR OBSTRUCTIONS TO VISIBILITY.

WIZ001-002-006>008-014>016-023>028-031300-
NORTHWEST WISCONSIN

CITY           SKY/WX    TMP DP  RH WIND       PRES   REMARKS
SUPERIOR ARPT  CLOUDY    61  54  77 SW10      29.71R
6HR MIN TEMP:  40; 6HR MAX TEMP:  61;

ASHLAND        CLOUDY    62  51  67 S15G23    29.74F
6HR MIN TEMP:  62; 6HR MAX TEMP:  65;

HAYWARD        PTSUNNY   58  49  72 S9        29.79F
6HR MIN TEMP:  58; 6HR MAX TEMP:  67;

SIREN          PTSUNNY   58  50  73 SE10G17   29.75F
6HR MIN TEMP:  58; 6HR MAX TEMP:  66;

CUMBERLAND     MOSUNNY   52  46  82 SE5       29.81S
RICE LAKE      MOSUNNY   52  47  83 E5        29.83S
6HR MIN TEMP:  51; 6HR MAX TEMP:  64;

CHETEK         MOSUNNY   53  50  90 CALM      29.83R
6HR MIN TEMP:  52; 6HR MAX TEMP:  65;

LADYSMITH      MOSUNNY   51  47  86 CALM      29.85R
6HR MIN TEMP:  50; 6HR MAX TEMP:  62;

EAU CLAIRE     CLOUDY    57  48  72 CALM      29.81R
6HR MIN TEMP:  57; 6HR MAX TEMP:  64;

MENOMONIE      CLOUDY    58  49  74 CALM      29.81S
6HR MIN TEMP:  58; 6HR MAX TEMP:  65;

NEW RICHMOND   MOCLDY    53  49  85 E3        29.79S
6HR MIN TEMP:  49; 6HR MAX TEMP:  64;

OSCEOLA        MOCLDY    56  50  80 S8        29.80F
6HR MIN TEMP:  55; 6HR MAX TEMP:  66;

$$

WIZ003>005-009-010-017-018-031300-
NORTH CENTRAL WISCONSIN

CITY           SKY/WX    TMP DP  RH WIND       PRES   REMARKS
MANITOWISH WTR CLOUDY    57  49  75 SW8       29.83R
6HR MIN TEMP:  55; 6HR MAX TEMP:  60;

ARBOR VITAE    SUNNY     57  50  79 SW8       29.84R
6HR MIN TEMP:  55; 6HR MAX TEMP:  62;

WOODRUFF       SUNNY     57  50  79 SW8       29.84R
6HR MIN TEMP:  55; 6HR MAX TEMP:  62;

RHINELANDER    SUNNY     56  48  74 SW8       29.85R
6HR MIN TEMP:  54; 6HR MAX TEMP:  62;

EAGLE RIVER    SUNNY     55  47  73 SW5       29.83S
6HR MIN TEMP:  55; 6HR MAX TEMP:  60;

LAND O LAKES   SUNNY     57  49  74 S3        29.84R
6HR MIN TEMP:  56; 6HR MAX TEMP:  58;

PHILLIPS       PTSUNNY   55  49  80 SW6       29.83R
6HR MIN TEMP:  54; 6HR MAX TEMP:  62;

TOMAHAWK       SUNNY     51  48  89 CALM      29.85R
6HR MIN TEMP:  48; 6HR MAX TEMP:  61;

MEDFORD        SUNNY     55  49  81 S5        29.84R
6HR MIN TEMP:  53; 6HR MAX TEMP:  60;

MERRILL        SUNNY     56  50  79 CALM      29.84S
6HR MIN TEMP:  54; 6HR MAX TEMP:  62;

$$

WIZ029-030-035-036-043>047-031300-
CENTRAL WISCONSIN

CITY           SKY/WX    TMP DP  RH WIND       PRES   REMARKS
WAUSAU         SUNNY     56  50  80 S7        29.84R
6HR MIN TEMP:  55; 6HR MAX TEMP:  62;

MOSINEE        SUNNY     54  50  87 S6        29.87R
MARSHFIELD     SUNNY     55  50  83 S7        29.84S
6HR MIN TEMP:  50; 6HR MAX TEMP:  61;

STEVENS POINT  SUNNY     54  48  79 S6        29.86S
6HR MIN TEMP:  50; 6HR MAX TEMP:  56;

WAUPACA        SUNNY     55  48  77 S3        29.88S
6HR MIN TEMP:  53; 6HR MAX TEMP:  59;

WAUTOMA        SUNNY     49  46  89 CALM      29.88S
6HR MIN TEMP:  45; 6HR MAX TEMP:  52;

WISC RAPIDS    SUNNY     57  48  72 S8        29.87R
6HR MIN TEMP:  52; 6HR MAX TEMP:  60;

CAMP DOUGLAS   PTSUNNY   60  52  76 S10G18    29.83S
6HR MIN TEMP:  56; 6HR MAX TEMP:  62;

$$

WIZ011>013-019>022-031-037>040-048>050-031300-
NORTHEAST WISCONSIN

CITY           SKY/WX    TMP DP  RH WIND       PRES   REMARKS
ANTIGO         SUNNY     54  49  84 SW7       29.86S
SHAWANO        SUNNY     58  48  69 SW3       29.87S
6HR MIN TEMP:  54; 6HR MAX TEMP:  61;

OCONTO         SUNNY     58  48  71 SW3       29.87R
6HR MIN TEMP:  47; 6HR MAX TEMP:  59;

STURGEON BAY   SUNNY     57  46  67 SW9       29.91R
6HR MIN TEMP:  54; 6HR MAX TEMP:  57;

GREEN BAY      MOSUNNY   56  48  74 S6        29.89R
6HR MIN TEMP:  53; 6HR MAX TEMP:  60;

MANITOWOC      CLOUDY    52  48  86 S3        29.91R
6HR MIN TEMP:  45; 6HR MAX TEMP:  58;

APPLETON       MOSUNNY   55  46  71 SW8       29.90R
CLINTONVILLE   SUNNY     54  46  76 S3        29.87S
OSHKOSH        SUNNY     57  48  72 S12       29.89S
6HR MIN TEMP:  52; 6HR MAX TEMP:  60;

$$

WIZ032>034-041-042-053>061-031300-
SOUTHWEST WISCONSIN

CITY           SKY/WX    TMP DP  RH WIND       PRES   REMARKS
LA CROSSE      PTSUNNY   62  51  67 S8        29.81S
6HR MIN TEMP:  59; 6HR MAX TEMP:  64;

SPARTA         MOSUNNY   60  47  63 SW3       29.84S
6HR MIN TEMP:  48; 6HR MAX TEMP:  60;

VIROQUA        PTSUNNY   58  49  70 S14       29.84S
6HR MIN TEMP:  56; 6HR MAX TEMP:  58;

BOSCOBEL       CLOUDY    62  49  62 VRB5      29.86S
6HR MIN TEMP:  51; 6HR MAX TEMP:  63;

PRAIRIE DU CHI CLOUDY    60  47  63 E7        29.84F
6HR MIN TEMP:  59; 6HR MAX TEMP:  63;

PLATTEVILLE    CLOUDY    59  49  69 SE12      29.88S
6HR MIN TEMP:  57; 6HR MAX TEMP:  61;

$$

WIZ056-057-062-063-064-067-068-031300-
SOUTH CENTRAL WISCONSIN

CITY           SKY/WX    TMP DP  RH WIND       PRES   REMARKS
REEDSBURG      MOSUNNY   60  49  69 S9G17     29.86F
6HR MIN TEMP:  56; 6HR MAX TEMP:  61;

BARABOO/DELLS  NOT AVBL
LONE ROCK      PTSUNNY   61  50  67 VRB7      29.88S
6HR MIN TEMP:  56; 6HR MAX TEMP:  61; 6HR PCP:  0.01;

MINERAL POINT  CLOUDY    59  50  72 SE8       29.89S
MADISON        CLOUDY    60  47  61 S12       29.91S
6HR MIN TEMP:  58; 6HR MAX TEMP:  63;

MIDDLETON      PTSUNNY   62  46  55 S13       29.90F
6HR MIN TEMP:  59; 6HR MAX TEMP:  62;

WATERTOWN      MOSUNNY   57  47  69 S6        29.91F
6HR MIN TEMP:  54; 6HR MAX TEMP:  57;

MONROE         CLOUDY    57  48  72 S15       29.93R
JANESVILLE     PTSUNNY   61  46  59 S7        29.93S
$$

WIZ051-052-058>065-066-070>072-031300-
SOUTHEAST WISCONSIN

CITY           SKY/WX    TMP DP  RH WIND       PRES   REMARKS
MILWAUKEE      PTSUNNY   59  42  53 S6        29.94S
6HR MIN TEMP:  58; 6HR MAX TEMP:  60;

WAUKESHA       PTSUNNY   55  43  62 S5        29.95S
MILWAUKEE/TIMM PTSUNNY   57  43  58 S3        29.95S
RACINE         PTSUNNY   59  42  53 S5        29.97R
6HR MIN TEMP:  56; 6HR MAX TEMP:  62;

BURLINGTON     PTSUNNY   55  43  64 CALM      29.95S
6HR MIN TEMP:  50; 6HR MAX TEMP:  55;

KENOSHA        MOSUNNY   59  43  55 S6        29.96R
6HR MIN TEMP:  55; 6HR MAX TEMP:  60;

FOND DU LAC    SUNNY     59  47  64 S12       29.91R
6HR MIN TEMP:  55; 6HR MAX TEMP:  61;

SHEBOYGAN      CLOUDY    57  48  72 S8        29.92R
6HR MIN TEMP:  49; 6HR MAX TEMP:  57;

WEST BEND      MOSUNNY   59  46  63 S5        29.93R
JUNEAU         SUNNY     57  48  71 S8        29.93S
6HR MIN TEMP:  53; 6HR MAX TEMP:  57;

$$

LSZ147-162-031300-
LAKE SUPERIOR

STATION/POSITION TIME  TEMP    WIND        PRES    WAVE
                       AIR SEA DIR/SP/G            HT/PER
                 (UTC) (F)     (DEG/KT/KT) (MB)    (FT/S)
W MID LAKE BUOY  1150   41 35  250/  8/ 10 1007.2R   1/ 3
DEVILS ISLAND    1200   47     250/  3/  5 1006.9R
PORT WING        1120          200/  6/ 23 1006.4R
SAXON HARBOR     1100   64     200/ 10/ 18 1007.1R
$$

LMZ867-665-643>646-031300-
LAKE MICHIGAN

STATION/POSITION TIME  TEMP    WIND        PRES    WAVE
                       AIR SEA DIR/SP/G            HT/PER


USA.gov is the U.S. government's official web portal to all federal, state and local government web resources and services.